Delaware, OH

10:21 PM EDT on April 28, 2017 (GMT -0400)
Delaware Municipal

Weather History for KDLZ - December, 2012

Change the Weather History Date:

Sunday, December 9, 2012

  Actual Average Record
Temperature  
Mean Temperature 44 °F -  
Max Temperature 53 °F 42 °F 67 °F (1966)
Min Temperature 35 °F 26 °F -1 °F (1958)
Degree Days  
Heating Degree Days 21    
Moisture  
Dew Point 40 °F    
Average Humidity 91    
Maximum Humidity 100    
Minimum Humidity 81    
Precipitation  
Precipitation 0.07 in - - ()
Sea Level Pressure  
Sea Level Pressure 29.94 in    
Wind  
Wind Speed 9 mph (ESE)    
Max Wind Speed 13 mph    
Max Gust Speed 18 mph    
Visibility 8 miles    
Events Rain    
Averages and records for this station are not official NWS values.
T = Trace of Precipitation, MM = Missing Value Source: NWS Daily Summary

Daily Weather History Graph

Daily Weather History Graph

Search for Another Location

Airport or City:

Trip Planner

Search our weather history database for the weather conditions in past years. The results will help you decide how hot, cold, wet, or windy it might be!

Date:

Astronomy

Dec. 09, 2012 Rise Set
Actual Time 7:43 AM EST 5:06 PM EST
Civil Twilight 7:13 AM EST 5:36 PM EST
Nautical Twilight 6:39 AM EST 6:10 PM EST
Astronomical Twilight 6:06 AM EST 6:43 PM EST
Moon 3:14 AM EST (12/9) 2:12 PM EST (12/9)
Length of Visible Light 10h 23m
Length of Day
9h 22m
Waning Crescent, 19% of the Moon is Illuminated
Dec 9
Waning Crescent
Dec 13
New
Dec 20
First Quarter
Dec 28
Full
Jan 4
Last Quarter

Hourly Weather History & Observations

Time (EST) Temp. Windchill Dew Point Humidity Pressure Visibility Wind Dir Wind Speed Gust Speed Precip Events Conditions
12:00 AM 37.4 °F 30.3 °F 35.6 °F 93% 30.08 in 10.0 mi ENE 10.4 mph - N/A   Overcast
12:19 AM 37.4 °F 31.4 °F 35.6 °F 93% 30.08 in 10.0 mi ENE 8.1 mph - N/A   Overcast
12:40 AM 37.4 °F 29.8 °F 35.6 °F 93% 30.09 in 10.0 mi NE 11.5 mph - N/A   Overcast
1:00 AM 37.4 °F 31.4 °F 35.6 °F 93% 30.08 in 10.0 mi NE 8.1 mph - N/A   Overcast
1:19 AM 37.4 °F 29.8 °F 35.6 °F 93% 30.09 in 10.0 mi ENE 11.5 mph - N/A   Overcast
1:40 AM 37.4 °F 29.8 °F 35.6 °F 93% 30.09 in 10.0 mi East 11.5 mph - N/A   Overcast
2:00 AM 37.4 °F 32.8 °F 35.6 °F 93% 30.10 in 10.0 mi East 5.8 mph - N/A   Overcast
2:19 AM 37.4 °F 30.3 °F 33.8 °F 87% 30.10 in 10.0 mi East 10.4 mph - N/A   Overcast
2:40 AM 37.4 °F 30.3 °F 33.8 °F 87% 30.09 in 10.0 mi ENE 10.4 mph - N/A   Overcast
3:00 AM 37.4 °F 32.1 °F 33.8 °F 87% 30.09 in 10.0 mi ENE 6.9 mph - N/A   Overcast
3:19 AM 37.4 °F 31.4 °F 33.8 °F 87% 30.10 in 10.0 mi ENE 8.1 mph - N/A   Overcast
3:40 AM 37.4 °F 31.4 °F 33.8 °F 87% 30.10 in 10.0 mi NE 8.1 mph - N/A   Overcast
4:00 AM 37.4 °F 30.8 °F 33.8 °F 87% 30.09 in 10.0 mi ENE 9.2 mph - N/A   Overcast
4:19 AM 37.4 °F 30.3 °F 33.8 °F 87% 30.07 in 10.0 mi ENE 10.4 mph - N/A   Overcast
4:40 AM 37.4 °F 30.8 °F 33.8 °F 87% 30.08 in 10.0 mi East 9.2 mph - N/A   Overcast
5:00 AM 37.4 °F 31.4 °F 33.8 °F 87% 30.07 in 10.0 mi East 8.1 mph - N/A   Overcast
5:19 AM 37.4 °F 31.4 °F 33.8 °F 87% 30.08 in 10.0 mi NE 8.1 mph - N/A   Overcast
5:40 AM 37.4 °F 32.1 °F 33.8 °F 87% 30.08 in 10.0 mi ENE 6.9 mph - N/A   Overcast
6:00 AM 37.4 °F 30.8 °F 33.8 °F 87% 30.08 in 10.0 mi ENE 9.2 mph - N/A   Overcast
6:19 AM 37.4 °F 31.4 °F 33.8 °F 87% 30.08 in 10.0 mi East 8.1 mph - N/A   Overcast
6:40 AM 37.4 °F 32.1 °F 33.8 °F 87% 30.09 in 10.0 mi NE 6.9 mph - N/A   Overcast
7:00 AM 37.4 °F 30.8 °F 33.8 °F 87% 30.08 in 10.0 mi East 9.2 mph - N/A   Overcast
7:19 AM 37.4 °F 30.8 °F 33.8 °F 87% 30.07 in 10.0 mi East 9.2 mph - N/A   Overcast
7:40 AM 37.4 °F 29.3 °F 32.0 °F 81% 30.05 in 10.0 mi East 12.7 mph - N/A   Overcast
8:19 AM 35.6 °F 28.6 °F 32.0 °F 87% 30.05 in 10.0 mi East 9.2 mph - N/A   Overcast
8:40 AM 37.4 °F 30.3 °F 33.8 °F 87% 30.05 in 10.0 mi East 10.4 mph - N/A   Overcast
9:00 AM 37.4 °F 29.8 °F 33.8 °F 87% 30.04 in 10.0 mi East 11.5 mph - N/A   Overcast
9:19 AM 37.4 °F 30.8 °F 33.8 °F 87% 30.05 in 10.0 mi ESE 9.2 mph - N/A   Overcast
9:40 AM 37.4 °F 32.1 °F 33.8 °F 87% 30.03 in 10.0 mi East 6.9 mph - N/A   Overcast
10:00 AM 37.4 °F 30.3 °F 33.8 °F 87% 30.03 in 10.0 mi ESE 10.4 mph - N/A   Overcast
10:20 AM 39.2 °F 32.5 °F 35.6 °F 87% 30.02 in 10.0 mi ESE 10.4 mph - N/A   Overcast
10:40 AM 39.2 °F 32.5 °F 35.6 °F 87% 30.00 in 10.0 mi ESE 10.4 mph - N/A   Overcast
10:59 AM 41.0 °F 34.7 °F 35.6 °F 81% 29.99 in 10.0 mi East 10.4 mph - N/A   Overcast
11:40 AM 41.0 °F 34.7 °F 37.4 °F 87% 29.98 in 10.0 mi SE 10.4 mph 17.3 mph N/A   Overcast
11:59 AM 42.8 °F 38.6 °F 37.4 °F 81% 29.96 in 10.0 mi SE 6.9 mph - N/A   Overcast
12:20 PM 42.8 °F 39.3 °F 37.4 °F 81% 29.95 in 10.0 mi ESE 5.8 mph - N/A   Overcast
12:40 PM 42.8 °F 38.6 °F 39.2 °F 87% 29.93 in 10.0 mi ESE 6.9 mph - N/A   Light Drizzle
12:59 PM 42.8 °F 38.0 °F 39.2 °F 87% 29.92 in 10.0 mi ESE 8.1 mph - N/A   Light Drizzle
1:20 PM 42.8 °F 38.6 °F 39.2 °F 87% 29.90 in 10.0 mi ESE 6.9 mph - N/A   Light Drizzle
1:40 PM 42.8 °F 38.6 °F 41.0 °F 93% 29.89 in 7.0 mi ESE 6.9 mph - N/A   Drizzle
1:59 PM 42.8 °F 38.6 °F 41.0 °F 93% 29.88 in 7.0 mi ESE 6.9 mph - N/A   Overcast
2:20 PM 42.8 °F 38.0 °F 41.0 °F 93% 29.87 in 7.0 mi SE 8.1 mph - N/A   Overcast
2:40 PM 44.6 °F 38.8 °F 42.8 °F 93% 29.85 in 5.0 mi SE 11.5 mph - N/A   Overcast
2:59 PM 44.6 °F 40.7 °F 42.8 °F 93% 29.85 in 5.0 mi SE 6.9 mph - N/A   Overcast
3:20 PM 44.6 °F 39.7 °F 42.8 °F 93% 29.84 in 5.0 mi SSE 9.2 mph - N/A   Overcast
3:40 PM 44.6 °F 39.2 °F 42.8 °F 93% 29.84 in 5.0 mi SSE 10.4 mph - N/A   Overcast
3:59 PM 44.6 °F 38.8 °F 44.6 °F 100% 29.83 in 4.0 mi SSE 11.5 mph - N/A   Drizzle
4:20 PM 46.4 °F 41.9 °F 44.6 °F 93% 29.83 in 4.0 mi South 9.2 mph - N/A   Overcast
4:40 PM 46.4 °F 41.9 °F 44.6 °F 93% 29.82 in 4.0 mi SSE 9.2 mph - N/A   Overcast
4:59 PM 46.4 °F 40.7 °F 44.6 °F 93% 29.82 in 4.0 mi SSE 12.7 mph - N/A   Overcast
5:20 PM 46.4 °F 41.1 °F 46.4 °F 100% 29.81 in 5.0 mi South 11.5 mph 16.1 mph N/A   Overcast
5:39 PM 48.2 °F - 46.4 °F 93% 29.81 in 5.0 mi South 10.4 mph - N/A   Overcast
6:00 PM 50.0 °F - 46.4 °F 87% 29.80 in 5.0 mi South 11.5 mph - N/A   Overcast
6:20 PM 50.0 °F - 48.2 °F 94% 29.80 in 5.0 mi South 9.2 mph - N/A   Overcast
6:39 PM 50.0 °F - 48.2 °F 94% 29.80 in 5.0 mi South 8.1 mph - N/A   Overcast
7:00 PM 51.8 °F - 50.0 °F 94% 29.79 in 7.0 mi South 9.2 mph - N/A Rain Rain
7:20 PM 51.8 °F - 50.0 °F 94% 29.78 in 7.0 mi South 11.5 mph - N/A   Overcast
7:39 PM 51.8 °F - 50.0 °F 94% 29.78 in 7.0 mi South 10.4 mph - N/A Rain Light Rain
8:20 PM 51.8 °F - 51.8 °F 100% 29.77 in 7.0 mi South 11.5 mph - N/A   Overcast
8:39 PM 53.6 °F - 51.8 °F 94% 29.76 in 7.0 mi South 9.2 mph - N/A Rain Rain
9:20 PM 53.6 °F - 51.8 °F 94% 29.74 in 7.0 mi South 9.2 mph - N/A   Drizzle
9:39 PM 53.6 °F - 51.8 °F 94% 29.72 in 7.0 mi South 9.2 mph - N/A   Overcast
10:00 PM 53.6 °F - 51.8 °F 94% 29.72 in 7.0 mi South 9.2 mph - N/A   Overcast
10:20 PM 53.6 °F - 51.8 °F 94% 29.70 in 10.0 mi South 9.2 mph - N/A   Overcast
10:39 PM 53.6 °F - 53.6 °F 100% 29.70 in 7.0 mi South 10.4 mph - 0.01 in Rain Rain
11:00 PM 53.6 °F - 53.6 °F 100% 29.70 in 5.0 mi South 10.4 mph - N/A Rain Rain
11:19 PM 53.6 °F - 53.6 °F 100% 29.69 in 5.0 mi SSW 12.7 mph 18.4 mph 0.04 in Rain Heavy Rain
11:40 PM 53.6 °F - 53.6 °F 100% 29.69 in 7.0 mi South 11.5 mph - 0.06 in Rain Light Rain